Location: Asheville, NC
(35.6000°N, 82.5500°W)
Time: 01:25:08
(UTC-05:00)

Vanguard 3 - Pass Details

Date: 15 February 2018
Orbit: 508 x 3264 km, 33.3° (Epoch: 23 February)

Event Time Altitude Azimuth Distance (km) Brightness Sun altitude
Rises 21:14:23 0° 273° (W) 2,818 10.9 -37.5°
Reaches altitude 10° 21:16:20 10° 267° (W) 2,062 9.9 -37.9°
Enters shadow 21:17:22 17° 262° (W) 1,702 9.3 -38.1°
Maximum altitude 21:20:50 49° 192° (SSW) 1,094 - -38.8°
Drops below altitude 10° 21:28:07 10° 120° (ESE) 3,326 - -40.2°
Sets 21:32:05 0° 116° (ESE) 4,773 - -41.0°
